Location: Krasnoyarskiy Pitomnik
(51.1333°N, 71.6167°E)
Time: 10:36:30
(UTC+00:00)

Altair - Pass Details

Date: 15 April 2024
Orbit: 1501 x 1682 km, 47.2° (Epoch: 17 May)

Event Time Altitude Azimuth Distance (km) Brightness Sun altitude
Rises 21:49:49 0° 287° (WNW) 4,782 9.9 -20.0°
Reaches altitude 10° 21:53:23 10° 278° (W) 3,767 9.2 -19.6°
Maximum altitude 22:01:14 31° 222° (SW) 2,454 8.0 -18.7°
Drops below altitude 10° 22:08:54 10° 165° (SSE) 3,661 9.2 -17.9°
Sets 22:12:20 0° 155° (SSE) 4,629 9.8 -17.5°
